Simultaneous Nadir Overpasses (SNOs) Predictions

Prediction of SNOs between GOES-15 and LANDSAT-8 Satellite Orbit:

Table of predicted SNOs for the next 14.0 days since TLE Epoch: 10/28/2023
Index Date Time (GOES-15) GOES-15 Lat,Lon LANDSAT-8 Lat,Lon Distance(km) Time Diff (sec)
1 10/28/2023 05:53:00 -0.30, 67.83 0.27, 65.24 294.96 80
2 10/30/2023 05:38:16 -0.30, 65.70 -0.78, 68.11 272.85 80
3 10/30/2023 18:02:22 0.29, 65.26 -0.22, 62.89 268.74 80
4 11/01/2023 17:47:38 0.29, 63.14 0.86, 65.76 298.04 80
5 11/02/2023 06:11:35 -0.28, 62.49 0.15, 60.58 217.22 80
6 11/04/2023 05:56:51 -0.28, 60.37 -0.95, 63.44 350.15 80
7 11/04/2023 18:20:56 0.27, 59.91 -0.10, 58.24 190.68 80
8 11/06/2023 18:06:11 0.27, 57.80 0.97, 61.11 375.92 80
9 11/07/2023 06:30:08 -0.26, 57.16 0.03, 55.93 140.16 80
10 11/09/2023 06:15:23 -0.26, 55.04 -1.05, 58.80 427.03 80
11 11/09/2023 18:39:27 0.25, 54.58 0.03, 53.59 112.99 80
